ONEWEB-0065 (45164 NORAD) Tracking and Keplerian Element Data

This shows tracking and keplerian element data for the satellite.

Feedback or suggestion? Click here.




ElementValue
Catalog45164
NameONEWEB-0065
Epoch Orbit3852
Epoch Day297.91667824
Epoch Year2020
RAAN86.4014
Inclination87.9564
Eccentricity0.002365
Argument of Perigee138.7618
Mean Anonmoly241.4265
Mean Motion13.28395333
Decay Rate5.717E-05
L11 45164U 20008AK 20297.91667824 .00005717 00000-0 12491-1 0 9991
L22 45164 87.9564 86.4014 0023650 138.7618 241.4265 13.28395333 38526

Live tracking and technical data element details for ONEWEB-0065 (NORAD 45164). ONEWEB-0065 can be tracked NOW for your location showing map with azimuth and elevation plus other details from your city location.

Track the satellite on the map from your city or location and see movement details for azimuth, elevation, latitude, longitude, range, height, and movement on the map or in text.







IsCatalogInMostPopularTable: catalog: 45164, numindb: 70
Update: records affected: 1



GetName: 45164 ONEWEB-0065

Hit Count: updated at: Sat, 24 Oct 2020 22:47:43 GMT